Temp
-13 -13 -12 -12 -12 -11 -11 -11 -11 -11 -11 -11 -11 -11 -11 -10 -10 -10 -11 -11 -12 -12 -11 -11 -11 -11 -10 -10 -9 -9 -8 -8 -8 -9 -10 -10 -9 -9 -9 -8 -7 -7 -8 -8 -8
-12 -12 -12 -12 -12 -12 -12 -12 -11 -11 -11 -11 -11 -11 -11 -10 -10 -11 -10 -11 -12 -12 -11 -12 -12 -12 -11 -11 -10 -10 -9 -8 -9 -9 -10 -11 -10 -10 -9 -9 -8 -8 -9 -9 -9
-12 -12 -12 -12 -12 -12 -12 -12 -12 -12 -11 -11 -11 -11 -11 -11 -11 -11 -10 -10 -11 -11 -11 -12 -12 -13 -12 -11 -11 -10 -9 -9 -9 -10 -11 -11 -10 -10 -9 -9 -9 -10 -10 -9 -9
-13 -13 -12 -12 -12 -12 -12 -12 -12 -12 -12 -11 -11 -11 -11 -11 -11 -11 -11 -11 -11 -11 -10 -11 -11 -12 -11 -11 -12 -11 -10 -10 -10 -11 -11 -11 -10 -10 -9 -9 -10 -10 -9 -9 -9
-13 -13 -13 -13 -13 -13 -13 -12 -12 -12 -12 -12 -11 -11 -11 -12 -11 -11 -11 -11 -11 -11 -11 -11 -12 -12 -11 -10 -12 -11 -11 -11 -11 -11 -11 -11 -10 -9 -8 -8 -9 -9 -9 -9 -9
-13 -13 -13 -13 -13 -13 -13 -13 -12 -12 -12 -12 -12 -12 -12 -12 -12 -12 -11 -11 -11 -11 -11 -11 -11 -12 -12 -12 -11 -11 -11 -12 -12 -11 -12 -11 -10 -10 -8 -10 -9 -9 -9 -10 -9
-14 -14 -13 -13 -13 -13 -13 -13 -13 -13 -12 -12 -12 -12 -12 -12 -11 -12 -12 -12 -11 -11 -11 -11 -11 -11 -11 -11 -11 -12 -12 -11 -11 -11 -11 -11 -10 -8 -9 -10 -9 -10 -10 -10 -10
-14 -14 -14 -14 -13 -13 -13 -13 -13 -13 -13 -12 -12 -12 -12 -12 -12 -12 -12 -11 -12 -11 -11 -11 -12 -12 -11 -11 -11 -11 -12 -11 -10 -11 -11 -11 -8 -9 -10 -10 -10 -10 -10 -10 -10
-14 -14 -14 -14 -14 -14 -13 -13 -13 -13 -12 -12 -12 -12 -12 -12 -12 -11 -11 -12 -12 -12 -12 -12 -12 -11 -12 -11 -11 -11 -11 -11 -11 -11 -11 -11 -7 -9 -10 -11 -10 -10 -9 -9 -9
-15 -14 -14 -14 -14 -13 -13 -13 -13 -13 -12 -12 -12 -12 -12 -12 -12 -12 -11 -11 -11 -11 -12 -12 -12 -12 -11 -11 -11 -10 -10 -10 -10 -11 -12 -11 -9 -10 -10 -10 -9 -9 -9 -8 -8
-15 -15 -14 -14 -14 -13 -13 -13 -14 -14 -13 -13 -13 -12 -12 -12 -12 -12 -12 -11 -11 -11 -11 -12 -12 -12 -12 -12 -12 -12 -11 -11 -11 -11 -11 -10 -10 -10 -10 -9 -9 -9 -9 -9 -8
-15 -15 -14 -14 -14 -14 -14 -13 -13 -13 -14 -14 -14 -14 -15 -15 -16 -18 -18 -15 -15 -13 -12 -13 -11 -12 -12 -12 -12 -12 -12 -12 -12 -11 -11 -10 -10 -10 -9 -9 -9 -9 -9 -8 -8
-15 -15 -15 -15 -14 -14 -14 -14 -14 -14 -15 -15 -16 -17 -20 -21 -23 -23 -22 -21 -21 -20 -16 -16 -14 -13 -13 -13 -12 -12 -12 -12 -11 -11 -11 -11 -10 -10 -9 -9 -8 -8 -8 -8 -8
-15 -16 -15 -15 -15 -15 -15 -15 -15 -16 -16 -17 -19 -21 -23 -23 -24 -23 -22 -22 -23 -22 -23 -22 -20 -17 -15 -14 -13 -12 -12 -12 -12 -12 -11 -12 -9 -9 -9 -8 -8 -8 -9 -8 -9
-16 -15 -15 -15 -15 -16 -16 -16 -16 -17 -18 -19 -21 -23 -24 -24 -23 -23 -23 -22 -23 -23 -24 -23 -22 -20 -19 -16 -15 -13 -13 -12 -12 -12 -12 -11 -11 -8 -9 -8 -8 -9 -9 -9 -10
-15 -15 -16 -16 -16 -16 -17 -17 -17 -18 -20 -21 -23 -24 -24 -24 -24 -23 -23 -22 -23 -23 -23 -23 -23 -23 -22 -19 -18 -16 -14 -14 -13 -12 -12 -11 -12 -9 -9 -9 -9 -9 -9 -10 -10
-15 -15 -15 -16 -16 -17 -17 -18 -19 -20 -21 -22 -23 -24 -24 -24 -24 -24 -23 -23 -23 -23 -23 -23 -23 -23 -23 -21 -19 -17 -16 -15 -14 -13 -11 -11 -11 -8 -9 -9 -9 -10 -10 -10 -10
-15 -15 -16 -16 -16 -17 -18 -19 -19 -20 -22 -23 -23 -24 -24 -24 -24 -24 -24 -24 -23 -23 -23 -23 -23 -23 -23 -22 -20 -18 -16 -15 -13 -12 -11 -11 -10 -8 -9 -9 -9 -10 -9 -10 -9
-16 -16 -16 -17 -17 -17 -18 -19 -20 -21 -22 -23 -24 -24 -24 -25 -25 -25 -24 -24 -23 -23 -23 -23 -23 -23 -22 -22 -22 -19 -17 -17 -16 -13 -12 -11 -10 -8 -9 -10 -10 -11 -10 -10 -9
-16 -16 -17 -17 -17 -18 -19 -20 -20 -21 -22 -23 -24 -24 -24 -24 -25 -25 -25 -24 -24 -24 -23 -23 -23 -23 -23 -22 -21 -21 -19 -18 -16 -13 -12 -11 -10 -9 -9 -10 -10 -10 -10 -9 -9
-16 -17 -17 -18 -18 -19 -19 -20 -21 -21 -22 -23 -24 -24 -24 -24 -25 -25 -25 -25 -24 -24 -24 -24 -23 -23 -23 -23 -23 -22 -20 -18 -16 -14 -11 -11 -10 -10 -10 -9 -10 -10 -10 -10 -10
-16 -17 -17 -18 -18 -19 -19 -20 -21 -22 -22 -23 -24 -24 -25 -24 -24 -25 -25 -25 -25 -24 -24 -24 -23 -23 -23 -23 -23 -22 -21 -19 -16 -14 -12 -11 -10 -10 -10 -10 -11 -11 -11 -10 -10
-17 -17 -17 -18 -18 -19 -20 -20 -21 -21 -22 -23 -24 -24 -24 -24 -24 -24 -25 -25 -24 -24 -24 -24 -23 -23 -23 -23 -23 -22 -22 -20 -17 -14 -12 -11 -11 -12 -10 -10 -10 -10 -11 -11 -11
-17 -18 -18 -18 -18 -18 -20 -21 -21 -22 -22 -23 -24 -24 -24 -24 -24 -23 -24 -23 -24 -24 -24 -24 -23 -23 -23 -23 -23 -22 -22 -20 -17 -14 -12 -11 -11 -12 -11 -12 -11 -11 -12 -11 -11
-18 -18 -18 -18 -19 -19 -20 -21 -21 -22 -22 -23 -24 -23 -23 -23 -23 -23 -23 -23 -24 -24 -24 -24 -23 -23 -23 -23 -23 -22 -21 -20 -17 -13 -12 -11 -10 -14 -13 -13 -13 -12 -12 -11 -11
-18 -18 -19 -18 -19 -19 -20 -21 -21 -22 -22 -23 -23 -23 -23 -23 -23 -23 -23 -23 -23 -24 -24 -24 -23 -23 -23 -23 -23 -22 -21 -19 -17 -13 -12 -11 -12 -13 -13 -13 -13 -13 -12 -11 -11
-18 -19 -19 -18 -19 -19 -20 -21 -21 -22 -23 -23 -23 -23 -22 -22 -22 -22 -22 -22 -22 -22 -23 -23 -23 -23 -23 -23 -22 -22 -22 -20 -18 -15 -12 -11 -13 -15 -14 -13 -13 -13 -13 -11 -12
Height
5767 5767 5766 5766 5765 5765 5766 5766 5766 5767 5767 5768 5769 5771 5772 5774 5776 5779 5783 5783 5786 5789 5791 5795 5799 5801 5803 5808 5810 5813 5815 5822 5829 5832 5837 5839 5840 5844 5844 5844 5847 5850 5852 5852 5853
5765 5764 5763 5763 5762 5761 5761 5761 5761 5761 5761 5761 5761 5762 5764 5765 5768 5769 5773 5772 5774 5778 5784 5787 5791 5792 5794 5798 5800 5803 5805 5815 5826 5825 5828 5829 5833 5838 5839 5839 5841 5844 5850 5847 5848
5760 5759 5758 5757 5756 5756 5755 5754 5754 5754 5753 5753 5754 5755 5755 5756 5758 5757 5759 5762 5764 5766 5771 5774 5778 5780 5784 5788 5790 5794 5796 5810 5817 5816 5817 5818 5823 5827 5831 5833 5840 5840 5840 5840 5838
5754 5753 5753 5752 5751 5750 5749 5749 5747 5745 5745 5746 5746 5746 5747 5748 5748 5745 5749 5752 5754 5756 5759 5762 5764 5765 5770 5774 5782 5782 5789 5796 5805 5803 5804 5809 5814 5816 5822 5828 5831 5834 5835 5834 5833
5749 5748 5747 5745 5744 5743 5742 5741 5739 5739 5739 5738 5737 5738 5738 5739 5734 5734 5738 5741 5743 5744 5746 5749 5750 5754 5756 5764 5767 5770 5779 5781 5788 5791 5794 5796 5802 5806 5811 5818 5822 5825 5826 5828 5828
5744 5743 5741 5740 5738 5737 5736 5734 5733 5732 5731 5731 5729 5728 5728 5722 5723 5725 5726 5728 5730 5733 5735 5736 5738 5740 5743 5748 5753 5763 5765 5766 5770 5780 5782 5784 5791 5794 5804 5809 5814 5816 5818 5819 5821
5739 5737 5735 5733 5731 5729 5727 5725 5723 5722 5720 5719 5718 5718 5716 5713 5712 5713 5713 5714 5716 5720 5723 5724 5723 5725 5731 5735 5740 5746 5749 5751 5758 5765 5772 5776 5778 5783 5796 5801 5802 5805 5807 5808 5811
5734 5732 5729 5727 5724 5722 5719 5716 5713 5711 5709 5707 5706 5705 5701 5701 5700 5700 5700 5697 5698 5702 5710 5708 5709 5712 5717 5722 5725 5729 5735 5738 5751 5754 5760 5763 5768 5783 5785 5786 5793 5796 5794 5793 5797
5729 5726 5724 5721 5718 5715 5711 5708 5704 5701 5698 5694 5692 5689 5686 5684 5683 5682 5683 5682 5683 5685 5689 5687 5694 5699 5703 5708 5710 5714 5722 5729 5736 5743 5743 5750 5755 5764 5772 5776 5779 5781 5783 5784 5787
5723 5720 5717 5713 5709 5706 5702 5698 5693 5689 5685 5681 5676 5675 5668 5663 5659 5655 5657 5664 5663 5666 5668 5668 5674 5682 5689 5691 5700 5708 5712 5714 5718 5726 5730 5735 5742 5751 5759 5762 5765 5769 5773 5776 5779
5717 5712 5709 5705 5701 5696 5693 5689 5686 5679 5671 5665 5658 5651 5643 5640 5634 5625 5629 5634 5638 5644 5644 5646 5650 5669 5683 5679 5685 5689 5693 5698 5704 5711 5722 5728 5730 5741 5743 5752 5756 5762 5766 5768 5770
5711 5706 5702 5697 5692 5687 5682 5677 5672 5667 5659 5650 5642 5631 5620 5613 5607 5602 5602 5603 5604 5614 5618 5621 5635 5653 5656 5659 5667 5672 5677 5685 5693 5701 5709 5718 5718 5727 5734 5740 5747 5752 5756 5758 5761
5705 5701 5695 5690 5684 5678 5673 5667 5660 5653 5647 5637 5627 5615 5606 5599 5591 5593 5592 5587 5584 5585 5591 5596 5617 5625 5629 5637 5649 5656 5662 5673 5682 5689 5701 5704 5703 5714 5728 5731 5740 5743 5748 5751 5753
5699 5695 5689 5684 5679 5671 5665 5658 5651 5643 5636 5627 5614 5604 5597 5591 5588 5586 5585 5581 5574 5575 5578 5581 5595 5600 5606 5616 5629 5637 5650 5661 5668 5680 5688 5693 5687 5706 5722 5725 5730 5734 5738 5743 5742
5696 5689 5684 5679 5673 5666 5659 5651 5643 5634 5625 5617 5607 5597 5590 5587 5584 5581 5579 5577 5573 5572 5572 5576 5584 5586 5589 5602 5609 5627 5636 5650 5655 5666 5675 5683 5683 5708 5714 5717 5723 5727 5730 5730 5731
5691 5685 5679 5672 5665 5660 5652 5644 5636 5629 5619 5609 5599 5592 5588 5582 5578 5577 5574 5572 5570 5568 5568 5571 5575 5574 5578 5588 5597 5613 5622 5634 5643 5654 5655 5681 5680 5697 5704 5711 5714 5718 5719 5722 5725
5687 5680 5673 5666 5660 5653 5646 5639 5631 5621 5612 5603 5596 5589 5583 5579 5574 5571 5570 5569 5567 5564 5565 5563 5566 5571 5574 5580 5589 5598 5609 5621 5632 5636 5658 5673 5672 5694 5698 5697 5704 5710 5713 5715 5719
5685 5677 5669 5661 5654 5647 5641 5633 5625 5615 5605 5599 5590 5584 5579 5575 5572 5569 5566 5565 5565 5563 5563 5561 5562 5567 5572 5576 5585 5591 5600 5611 5621 5635 5657 5662 5669 5680 5693 5696 5699 5702 5704 5710 5715
5682 5674 5665 5657 5649 5641 5635 5627 5619 5610 5600 5593 5589 5582 5578 5572 5567 5566 5563 5563 5563 5562 5562 5561 5560 5564 5568 5573 5579 5583 5591 5608 5612 5626 5643 5651 5668 5674 5683 5690 5693 5697 5699 5704 5709
5679 5672 5663 5653 5645 5636 5630 5622 5613 5604 5595 5588 5582 5578 5573 5569 5566 5563 5561 5560 5560 5560 5560 5561 5563 5563 5566 5570 5575 5579 5588 5594 5602 5619 5634 5650 5659 5663 5674 5683 5686 5692 5698 5701 5705
5674 5666 5659 5650 5641 5632 5625 5618 5609 5598 5590 5585 5579 5574 5570 5566 5563 5561 5560 5559 5557 5558 5558 5559 5561 5564 5565 5569 5571 5574 5578 5586 5598 5612 5627 5642 5649 5654 5666 5674 5681 5688 5695 5697 5700
5669 5662 5655 5647 5639 5629 5620 5612 5606 5596 5585 5579 5575 5571 5567 5564 5562 5559 5557 5555 5555 5555 5556 5556 5558 5560 5561 5561 5563 5567 5572 5579 5589 5605 5619 5630 5640 5646 5660 5667 5675 5683 5690 5692 5695
5666 5657 5650 5642 5634 5626 5617 5609 5602 5593 5585 5578 5572 5568 5565 5561 5558 5556 5555 5553 5552 5552 5552 5553 5554 5555 5555 5558 5559 5562 5568 5571 5582 5594 5609 5618 5635 5640 5653 5657 5668 5676 5683 5687 5692
5663 5654 5646 5638 5628 5621 5613 5607 5599 5591 5581 5574 5570 5565 5562 5559 5555 5552 5550 5549 5547 5546 5547 5547 5549 5549 5551 5551 5553 5556 5560 5566 5572 5586 5599 5609 5627 5639 5646 5651 5661 5669 5677 5683 5688
5658 5651 5641 5634 5626 5617 5610 5602 5598 5591 5583 5574 5570 5564 5561 5558 5553 5549 5546 5543 5542 5540 5541 5541 5542 5544 5545 5546 5547 5548 5552 5558 5564 5578 5589 5601 5618 5632 5640 5648 5656 5665 5672 5679 5684
5655 5647 5638 5632 5623 5615 5607 5600 5594 5588 5580 5574 5568 5563 5559 5555 5551 5547 5543 5539 5535 5535 5535 5536 5538 5539 5541 5542 5541 5543 5547 5553 5560 5571 5584 5592 5614 5623 5634 5644 5653 5660 5667 5674 5679
5652 5644 5635 5629 5621 5613 5605 5597 5590 5585 5579 5570 5565 5562 5559 5554 5550 5546 5542 5538 5536 5533 5531 5532 5534 5535 5536 5537 5536 5538 5543 5544 5552 5562 5574 5584 5612 5619 5628 5638 5648 5656 5665 5670 5675
Wind_Speed
19 20 22 23 25 27 29 33 35 37 38 38 37 36 37 39 40 47 50 56 60 62 54 49 47 48 49 51 52 51 53 49 44 38 39 46 48 44 44 50 46 45 46 44 46
18 19 20 21 23 25 26 28 29 31 33 36 40 42 42 42 42 43 45 54 58 61 64 59 52 53 54 52 55 54 56 51 45 43 40 48 48 41 49 51 53 50 41 33 40
19 20 21 22 23 24 27 29 30 32 33 35 37 38 40 42 43 48 47 48 54 58 57 62 64 58 60 57 60 59 62 53 49 48 46 46 50 51 53 54 43 35 38 36 38
19 21 22 24 25 26 27 28 30 33 35 37 38 39 40 41 43 46 46 48 53 54 60 69 66 71 67 66 61 64 63 58 51 49 48 50 52 55 55 52 47 45 44 41 45
22 24 25 26 26 27 28 29 31 33 34 36 38 39 40 42 46 49 49 49 49 54 57 61 65 70 70 71 66 68 63 63 58 55 55 54 56 57 59 57 52 50 51 52 45
18 18 19 20 22 24 26 28 30 32 33 34 36 37 40 46 48 49 51 52 53 53 55 59 62 65 72 73 78 73 70 71 71 64 62 62 60 61 59 54 52 52 50 46 48
17 19 21 23 25 27 29 32 33 35 35 37 39 40 42 47 50 51 53 56 57 58 57 59 61 65 66 67 67 81 79 78 75 70 65 63 68 67 56 52 51 49 50 51 45
21 22 24 25 27 29 32 34 38 41 42 43 43 44 49 51 52 53 56 60 61 60 58 64 65 65 65 67 67 66 83 82 73 70 67 64 67 60 58 57 52 52 55 52 46
23 24 26 28 31 34 37 39 39 41 43 46 48 51 54 56 59 62 61 61 63 64 64 68 66 67 67 66 68 69 68 70 70 76 76 73 60 62 61 61 58 55 51 50 49
27 28 30 33 34 35 36 38 40 43 46 48 52 56 59 63 66 70 71 69 72 69 70 72 72 68 68 69 68 66 68 70 71 67 74 77 64 66 58 55 52 49 46 45 46
28 30 30 31 32 34 36 37 39 44 49 52 57 61 67 71 75 78 77 77 77 77 77 74 77 69 65 67 66 68 68 67 66 67 65 64 66 60 58 51 49 44 42 42 40
28 30 31 32 33 35 37 39 41 44 50 55 61 71 76 76 71 60 58 68 68 72 76 76 76 71 72 72 70 68 68 67 64 62 61 61 65 64 59 54 50 46 44 42 40
29 28 31 31 34 38 39 40 44 48 51 57 67 65 56 50 42 36 34 36 37 44 64 68 70 74 77 76 73 72 69 65 64 62 57 56 62 58 53 51 48 46 41 39 39
30 29 31 33 36 38 39 42 46 50 52 59 55 53 39 32 30 24 18 23 26 22 32 44 56 70 78 77 75 75 70 66 64 60 58 55 64 53 45 45 42 40 37 35 40
29 32 33 33 35 37 40 43 47 50 57 53 50 35 27 27 26 26 25 23 18 24 23 30 39 58 68 74 75 73 70 67 65 60 58 56 58 41 39 42 39 35 33 38 37
34 34 35 37 37 38 39 42 45 47 47 43 40 28 28 29 25 25 27 24 21 23 26 22 31 41 50 62 64 67 67 64 63 60 64 49 52 34 31 34 36 34 34 33 30
37 37 37 37 39 38 39 41 43 44 46 39 35 27 25 23 22 20 23 20 19 13 20 20 36 34 31 45 58 63 65 61 59 63 53 48 50 27 24 35 31 30 32 33 30
37 38 38 38 39 38 37 40 40 43 39 29 34 26 26 26 21 21 19 13 15 12 12 23 18 34 33 32 42 53 60 60 64 59 48 47 44 32 33 12 11 21 30 27 23
38 38 38 40 40 39 37 39 39 41 37 29 27 23 21 23 24 18 20 12 12 16 9 6 8 18 28 29 31 46 51 46 50 56 54 50 40 36 34 32 35 22 17 25 22
39 38 38 39 39 38 36 37 39 41 35 28 30 25 23 17 18 17 12 13 11 13 12 7 9 9 17 22 21 37 45 47 50 50 53 48 44 43 37 36 27 20 18 17 18
42 41 39 38 37 37 36 34 35 41 40 29 24 26 24 21 16 17 11 11 12 12 6 8 7 10 16 23 28 26 42 48 48 49 49 48 51 49 41 38 33 35 15 19 20
42 42 41 38 38 36 36 37 34 36 38 28 24 23 22 20 16 17 13 14 11 13 12 11 12 8 8 24 26 35 33 45 51 50 50 52 54 53 43 39 27 28 28 20 18
41 43 42 40 40 38 33 35 34 38 36 25 24 22 23 16 20 17 14 14 12 13 14 14 14 12 14 19 28 30 39 43 50 54 54 56 49 29 44 41 32 28 29 29 23
41 42 42 41 42 42 37 33 32 35 34 27 23 22 21 13 20 16 16 11 16 18 18 19 13 13 15 19 28 32 37 45 54 56 57 57 51 22 29 28 28 35 34 29 22
42 41 42 41 40 43 39 36 32 31 29 25 18 17 17 16 18 13 16 18 18 18 22 24 17 16 20 19 22 31 36 45 54 58 59 57 52 35 33 36 38 34 31 27 23
40 39 39 40 39 41 39 35 32 31 30 24 18 15 17 20 18 16 19 17 12 17 21 24 20 18 20 22 18 27 36 42 54 58 57 59 44 47 44 43 39 36 34 30 22
36 36 37 39 38 38 39 36 35 34 28 25 14 11 17 20 21 21 20 19 17 13 11 18 22 23 23 22 22 22 24 41 51 58 60 58 50 49 49 46 42 39 36 30 24
Wind_Direction
273 267 264 266 267 269 268 269 268 263 259 257 257 256 255 254 253 249 246 244 239 242 237 233 231 236 235 233 231 230 233 232 226 223 222 225 233 233 245 252 256 257 263 263 265
271 269 265 262 262 263 264 263 263 265 266 265 261 257 251 250 251 249 247 244 242 240 242 243 237 234 236 233 235 233 235 234 234 231 226 223 228 233 241 247 255 264 271 279 272
282 279 276 275 272 270 270 268 265 263 262 262 261 262 263 261 257 251 246 244 245 248 244 244 237 237 233 234 235 235 237 239 235 237 234 234 233 233 237 246 254 258 271 275 276
286 283 280 278 276 273 270 269 269 270 269 267 265 263 260 260 260 256 253 252 248 246 243 242 245 246 237 235 233 236 237 236 233 238 248 248 245 242 241 245 255 260 269 276 288
288 287 285 283 282 280 277 275 273 272 271 272 272 270 268 263 259 259 255 253 250 250 247 244 246 248 245 239 242 238 238 236 233 239 247 249 247 251 249 252 259 262 272 275 279
291 292 291 288 287 286 285 282 280 278 276 273 271 272 272 269 267 263 259 255 252 249 248 249 249 246 244 247 240 242 245 247 246 244 250 252 250 250 251 261 265 267 268 270 270
286 287 287 287 287 289 290 289 288 286 284 282 279 276 271 270 268 267 265 262 257 252 248 247 247 248 248 247 248 239 241 244 247 248 251 253 251 250 260 263 265 267 269 271 270
294 295 295 295 293 293 293 292 291 288 286 283 281 277 272 270 268 265 263 263 260 257 251 249 245 244 247 249 250 247 240 245 248 248 250 251 252 251 256 260 262 264 267 266 263
303 301 300 298 297 295 293 291 289 286 286 285 283 280 276 273 268 262 257 257 259 258 254 249 246 245 244 244 246 247 246 246 250 247 250 251 251 254 259 258 260 260 257 256 258
305 303 301 300 301 301 299 297 296 295 293 292 289 286 281 278 275 269 262 257 254 253 254 253 248 243 243 244 246 250 250 248 248 247 246 251 254 260 258 257 255 255 257 261 260
309 307 306 303 303 301 300 300 302 302 298 297 297 294 290 287 283 280 272 263 257 252 254 247 247 246 245 244 243 244 246 246 247 249 249 252 253 253 256 255 257 258 260 263 264
313 312 311 310 309 307 308 307 305 304 307 307 306 306 305 302 293 288 283 274 267 255 249 244 245 243 240 238 239 240 242 243 244 247 250 250 254 252 254 254 255 256 256 256 258
317 318 316 317 318 316 314 311 312 311 315 315 317 316 310 302 296 294 298 293 276 259 239 236 236 234 234 234 234 236 239 240 242 244 247 249 249 249 250 255 257 257 255 257 260
326 327 326 324 322 317 316 316 317 318 321 325 321 317 310 297 290 300 299 315 284 266 253 243 229 227 228 227 230 232 234 237 241 241 242 246 248 245 247 251 252 252 256 256 256
335 330 328 326 323 321 320 321 324 325 329 325 323 316 316 307 292 294 298 311 293 247 268 250 235 229 225 225 224 228 230 232 236 238 240 240 249 243 246 251 251 253 249 250 252
340 333 329 330 329 327 325 327 328 331 330 324 327 317 304 310 288 290 300 306 299 246 256 259 243 229 228 222 225 223 225 228 231 234 236 236 246 247 243 238 239 242 242 249 253
345 342 339 334 332 330 329 329 331 334 332 325 328 315 309 311 296 276 290 297 307 247 265 268 232 232 227 224 220 220 222 224 227 230 230 231 238 243 239 236 225 229 237 245 250
345 343 340 336 335 332 330 332 333 333 330 321 326 324 317 306 312 279 278 296 294 257 261 270 263 230 231 225 220 221 220 223 228 229 225 229 229 231 218 228 205 228 231 239 244
345 346 344 339 336 332 331 335 334 335 333 319 324 326 323 307 308 314 271 288 291 292 271 313 226 218 228 227 224 214 218 216 223 225 222 224 225 225 228 234 240 233 215 226 222
344 346 346 342 338 332 331 336 335 337 335 322 322 331 334 328 304 319 290 281 286 288 291 276 230 211 207 222 213 218 213 209 215 219 222 220 220 224 224 228 230 226 228 225 221
344 345 346 344 341 335 332 338 339 339 336 327 322 325 327 328 321 316 283 264 269 279 275 264 234 247 235 212 219 222 215 213 212 214 216 215 218 224 226 228 226 235 233 211 228
343 341 344 345 343 340 333 340 343 342 335 330 326 325 326 325 327 320 304 269 266 277 272 258 257 244 249 233 233 215 212 215 210 208 210 212 218 224 219 226 224 222 211 232 222
341 341 343 344 342 344 338 339 342 344 345 334 324 315 326 318 322 322 315 287 267 267 268 267 255 254 258 247 234 235 220 215 208 206 204 209 202 222 216 225 221 210 206 222 215
341 340 342 344 342 343 342 342 343 345 343 342 331 331 331 340 329 338 327 300 285 268 258 244 254 269 240 239 227 233 234 220 209 203 202 207 201 181 194 188 189 181 189 203 209
339 341 340 344 343 341 342 340 347 345 349 343 339 337 350 348 332 320 310 292 272 266 254 243 251 256 244 244 249 232 231 225 211 204 204 205 201 189 191 176 169 175 187 199 197
338 337 338 343 345 341 341 338 344 344 346 347 337 343 348 347 345 340 316 329 325 265 255 246 242 259 249 247 266 245 235 227 213 203 202 206 188 187 182 179 173 180 187 187 185
340 335 336 341 343 341 342 339 342 345 342 349 351 355 347 344 344 343 338 330 313 304 288 248 251 250 242 250 266 243 239 228 218 206 203 204 172 176 175 174 179 188 186 184 184